Regional Weather Roundup
Issued by NWS

Home | Current Version | Previous Version | Text Only | Print | Product List | Glossary Off
Versions: 1 2 3 4 5 6 7 8 9 10 11 12 13 14 15 16 17 18 19 20 21 22 23 24 25 26 27 28 29 30 31 32 33 34 35 36 37 38 39 40 41 42 43 44 45 46 47 48 49 50

789
ASUS43 KMKX 200320
RWRWI

WISCONSIN REGIONAL WEATHER ROUNDUP
NATIONAL WEATHER SERVICE MILWAUKEE/SULLIVAN WI
900 PM CST SUN NOV 19 2017

NOTE: "FAIR" INDICATES FEW OR NO CLOUDS BELOW 12,000 FEET WITH NO
SIGNIFICANT WEATHER AND/OR OBSTRUCTIONS TO VISIBILITY.

WIZ001-002-006>008-014>016-023>028-200400-
NORTHWEST WISCONSIN

CITY           SKY/WX    TMP DP  RH WIND       PRES   REMARKS
SUPERIOR ARPT  CLOUDY    18  17  95 CALM      29.81F
ASHLAND        CLOUDY    20  15  81 SE5       29.84F WCI  13
HAYWARD        PTCLDY    26  16  65 S5        29.81F WCI  20
SIREN          CLEAR     27  19  72 CALM      29.80F
CUMBERLAND     CLEAR     25  18  74 SE3       29.82F
RICE LAKE      CLEAR     26  18  72 SE3       29.85F
CHETEK         CLEAR     24  17  76 SE5       29.84F WCI  18
LADYSMITH      CLEAR     24  18  79 SE3       29.85F
EAU CLAIRE     CLEAR     26  18  71 SW5       29.85F WCI  20
MENOMONIE      CLEAR     25  21  84 E3        29.85F
NEW RICHMOND   CLEAR     30  24  77 S7        29.83S WCI  23
OSCEOLA        CLEAR     31  24  76 S8        29.84F WCI  23
$$

WIZ003>005-009-010-017-018-200400-
NORTH CENTRAL WISCONSIN

CITY           SKY/WX    TMP DP  RH WIND       PRES   REMARKS
MANITOWISH WTR CLOUDY    17  15  92 S3        29.82S
ARBOR VITAE    CLOUDY    22  17  80 CALM      29.82F
WOODRUFF       CLOUDY    22  17  80 CALM      29.82F
RHINELANDER    CLEAR    N/A N/A N/A CALM      29.83F
EAGLE RIVER    CLEAR     15  14  97 CALM      29.82S
LAND O LAKES   CLOUDY    18  16  92 CALM      29.83F
PHILLIPS       CLEAR     22  16  76 CALM      29.82S
TOMAHAWK       CLOUDY    19  15  84 CALM      29.84F
MEDFORD        PTCLDY    22  16  78 S6        29.84S WCI  15
MERRILL        CLEAR     24  16  73 CALM      29.86S
$$

WIZ029-030-035-036-043>047-200400-
CENTRAL WISCONSIN

CITY           SKY/WX    TMP DP  RH WIND       PRES   REMARKS
WAUSAU         CLEAR     26  16  65 CALM      29.87S
MOSINEE        MOCLDY    21  16  79 S7        29.89S WCI  13
MARSHFIELD     CLEAR     24  15  68 SW5       29.87S WCI  18
STEVENS POINT  CLEAR     21  14  73 S3        29.90S
WAUPACA        PTCLDY    26  17  67 S5        29.93S WCI  20
WAUTOMA        CLOUDY    25  17  72 S3        29.94S
WISC RAPIDS    CLEAR     24  17  74 S3        29.91F
CAMP DOUGLAS   CLEAR    N/A N/A N/A SW3       29.93S
$$

WIZ011>013-019>022-031-037>040-048>050-200400-
NORTHEAST WISCONSIN

CITY           SKY/WX    TMP DP  RH WIND       PRES   REMARKS
ANTIGO         CLEAR     22  17  79 CALM      29.86R
SHAWANO        CLEAR     29  17  59 CALM      29.91S
OCONTO         CLOUDY    27  15  59 CALM      29.92S
STURGEON BAY   CLOUDY    30  18  60 SW7       29.93R WCI  23
GREEN BAY      CLOUDY    30  20  66 SW5       29.93S WCI  25
MANITOWOC      CLOUDY    30  20  66 SW5       29.96S WCI  25
APPLETON       MOCLDY    27  16  63 SW9       29.92S WCI  17
CLINTONVILLE   CLEAR     27  18  69 SW5       29.91S WCI  21
OSHKOSH        CLEAR     26  19  74 S7        29.94S WCI  18
$$

WIZ032>034-041-042-053>061-200400-
SOUTHWEST WISCONSIN

CITY           SKY/WX    TMP DP  RH WIND       PRES   REMARKS
LA CROSSE      CLEAR     34  24  67 E12       29.92F WCI  25
SPARTA         CLEAR     31  23  70 SW3       29.92F
VIROQUA        CLEAR     30  25  81 SW12      29.92S WCI  20
BOSCOBEL       CLEAR     29  21  72 SW6       29.98F WCI  23
PRAIRIE DU CHI CLOUDY    34  22  61 CALM      29.98F
PLATTEVILLE    CLOUDY    30  24  79 SW10      30.00S WCI  21
$$

WIZ056-057-062-063-064-067-068-200400-
SOUTH CENTRAL WISCONSIN

CITY           SKY/WX    TMP DP  RH WIND       PRES   REMARKS
REEDSBURG      CLEAR     29  20  67 SW5       29.94F WCI  24
BARABOO/DELLS  CLEAR     30  20  67 SW6       29.94F WCI  24
LONE ROCK      CLEAR     28  21  75 VRB3      29.98F
MINERAL POINT  CLEAR     30  25  80 S6        29.97F WCI  24
MADISON        PTCLDY    31  20  63 SW10G20   29.97F WCI  22
MIDDLETON      CLEAR     32  21  65 SW14G23   29.97F WCI  22
WATERTOWN      PTCLDY    26  21  79 SW7       29.99S WCI  19
MONROE         CLEAR     28  21  74 SW16      29.99F WCI  17
JANESVILLE     CLEAR     27  21  80 SW6       30.01S WCI  20
$$

WIZ051-052-058>065-066-070>072-200400-
SOUTHEAST WISCONSIN

CITY           SKY/WX    TMP DP  RH WIND       PRES   REMARKS
MILWAUKEE      PTCLDY    31  19  61 SW13      30.00F WCI  21
WAUKESHA       CLEAR     27  18  69 SW8       30.00F WCI  18
MILWAUKEE/TIMM CLEAR     28  16  59 SW7       30.00F WCI  21
RACINE         CLEAR     30  20  66 SW12G23   30.03S WCI  20
BURLINGTON     CLEAR     30  25  80 SW9       30.01F WCI  22
KENOSHA        CLEAR     29  19  66 SW13      30.03S WCI  19
FOND DU LAC    PTCLDY    28  18  66 SW7       29.96S WCI  21
SHEBOYGAN      CLOUDY    29  20  69 SW9       29.96S WCI  20
WEST BEND      CLEAR     28  19  69 SW8       29.97S WCI  20
JUNEAU         CLOUDY    27  20  76 S12       29.98S WCI  16
$$

LSZ147-162-200400-
LAKE SUPERIOR

STATION/POSITION TIME  TEMP    WIND        PRES    WAVE
                       AIR SEA DIR/SP/G            HT/PER
                 (UTC) (F)     (DEG/KT/KT) (MB)    (FT/S)
DEVILS ISLAND    0300   29     190/  4/  6 1011.2F
SAXON HARBOR     0230   22     200/  1/  2 1010.5F
$$

LMZ867-665-643>646-200400-
LAKE MICHIGAN

STATION/POSITION TIME  TEMP    WIND        PRES    WAVE
                       AIR SEA DIR/SP/G            HT/PER
                 (UTC) (F)     (DEG/KT/KT) (MB)    (FT/S)
N MID LAKE BUOY  0250   33 48  250/ 17/ 23 1013.4S   3/ 4
NORTHPORT PIER   0240   31     280/  7/ 13 1012.9S
KEWAUNEE LAKESHO 0254   30     260/  7/  9 1013.1S
SHEBOYGAN LAKESH 0300   31     230/ 10/ 12 1015.5S
PORT WASHINGTON  0240   30     250/  6/ 10 1016.3S
MILWAUKEE LAKESH 0300   32     240/ 13/ 15   N/A
S MID LAKE BUOY  0250   36 49  290/ 19/ 23 1017.1F   5/ 5
KENOSHA   LAKESH 0300   31     250/ 13/ 19 1016.9
$$

TC  - TEMPERATURE IN CELSIUS
VSB - VISIBILITY IN STATUTE MILES
WCI - WIND CHILL INDEX
HX  - HEAT INDEX





USA.gov is the U.S. government's official web portal to all federal, state and local government web resources and services.